TimeEST,TemperatureF,Dew PointF,Humidity,Sea Level PressureIn,VisibilityMPH,Wind Direction,Wind SpeedMPH,Gust SpeedMPH,PrecipitationIn,Events,Conditions,WindDirDegrees,DateUTC
12:15 AM,31.1,28.0,88,30.15,10.0,North,11.5,-,N/A,,Overcast,350,2013-03-07 05:15:00
12:35 AM,31.1,28.2,89,30.15,10.0,NNW,5.8,-,N/A,,Overcast,330,2013-03-07 05:35:00
1:15 AM,30.9,27.3,86,30.15,10.0,NW,3.5,-,N/A,,Overcast,320,2013-03-07 06:15:00
1:35 AM,30.9,27.5,87,30.16,10.0,NNW,3.5,-,N/A,,Overcast,330,2013-03-07 06:35:00
1:55 AM,30.9,27.5,87,30.16,10.0,NNW,5.8,-,N/A,,Overcast,340,2013-03-07 06:55:00
2:15 AM,30.9,27.5,87,30.16,10.0,North,5.8,-,N/A,,Overcast,350,2013-03-07 07:15:00
2:35 AM,30.9,27.5,87,30.15,10.0,NNW,4.6,-,N/A,,Overcast,330,2013-03-07 07:35:00
2:55 AM,30.7,27.5,88,30.16,10.0,NNW,5.8,-,N/A,,Overcast,340,2013-03-07 07:55:00
3:15 AM,30.7,27.5,88,30.16,10.0,NW,5.8,-,N/A,,Overcast,310,2013-03-07 08:15:00
3:35 AM,30.6,27.9,90,30.16,10.0,WNW,8.1,-,N/A,,Overcast,300,2013-03-07 08:35:00
3:55 AM,30.6,28.0,90,30.16,10.0,NW,4.6,-,N/A,,Overcast,320,2013-03-07 08:55:00
4:15 AM,30.4,28.2,92,30.17,10.0,NW,5.8,-,N/A,,Overcast,320,2013-03-07 09:15:00
4:35 AM,30.2,27.9,91,30.18,10.0,NW,5.8,-,N/A,,Overcast,320,2013-03-07 09:35:00
5:15 AM,30.6,27.9,90,30.19,10.0,NW,5.8,-,N/A,,Overcast,320,2013-03-07 10:15:00
5:35 AM,30.6,27.9,90,30.20,10.0,NW,4.6,-,N/A,,Overcast,320,2013-03-07 10:35:00
5:55 AM,30.6,27.9,90,30.21,10.0,NW,3.5,-,N/A,,Overcast,310,2013-03-07 10:55:00
6:15 AM,30.7,27.5,88,30.21,10.0,NW,4.6,-,N/A,,Overcast,320,2013-03-07 11:15:00
6:35 AM,30.7,27.3,87,30.22,10.0,NW,4.6,-,N/A,,Overcast,320,2013-03-07 11:35:00
6:55 AM,30.7,27.3,87,30.22,10.0,NW,4.6,-,N/A,,Overcast,320,2013-03-07 11:55:00
7:15 AM,30.9,27.3,86,30.23,10.0,WNW,4.6,-,N/A,,Overcast,290,2013-03-07 12:15:00
7:35 AM,30.7,27.5,88,30.23,10.0,NW,3.5,-,N/A,,Overcast,310,2013-03-07 12:35:00
8:15 AM,30.9,27.9,88,30.24,7.0,NW,4.6,-,N/A,,Overcast,310,2013-03-07 13:15:00
8:35 AM,30.9,28.0,89,30.25,7.0,Calm,Calm,-,N/A,,Overcast,0,2013-03-07 13:35:00
8:55 AM,30.9,28.2,90,30.25,7.0,WNW,4.6,-,N/A,,Overcast,300,2013-03-07 13:55:00
9:15 AM,31.1,28.0,88,30.25,5.0,NNW,4.6,-,N/A,,Overcast,330,2013-03-07 14:15:00
9:35 AM,31.5,27.9,87,30.26,7.0,NNW,8.1,-,N/A,,Overcast,330,2013-03-07 14:35:00
9:55 AM,31.6,27.5,85,30.26,7.0,NNW,4.6,-,N/A,,Overcast,340,2013-03-07 14:55:00
10:15 AM,31.8,27.3,83,30.26,10.0,NNW,4.6,-,N/A,,Overcast,330,2013-03-07 15:15:00
10:35 AM,32.0,27.3,83,30.26,10.0,NW,5.8,-,N/A,,Overcast,310,2013-03-07 15:35:00
10:55 AM,32.0,28.0,85,30.26,10.0,NNW,4.6,-,N/A,,Overcast,330,2013-03-07 15:55:00
11:15 AM,32.0,27.5,83,30.26,10.0,NW,6.9,-,N/A,,Overcast,320,2013-03-07 16:15:00
11:35 AM,32.0,27.5,83,30.26,10.0,North,5.8,-,N/A,,Overcast,350,2013-03-07 16:35:00
12:15 PM,32.0,27.3,83,30.26,10.0,North,4.6,-,N/A,,Overcast,350,2013-03-07 17:15:00
12:35 PM,32.0,27.3,83,30.26,10.0,NNW,6.9,-,N/A,,Overcast,330,2013-03-07 17:35:00
12:55 PM,32.5,27.3,81,30.26,10.0,North,6.9,-,N/A,,Overcast,360,2013-03-07 17:55:00
1:15 PM,32.9,27.0,79,30.26,10.0,NNW,6.9,-,N/A,,Overcast,340,2013-03-07 18:15:00
1:35 PM,33.4,27.3,78,30.25,10.0,NW,8.1,-,N/A,,Overcast,320,2013-03-07 18:35:00
1:55 PM,33.4,27.3,78,30.25,10.0,NW,6.9,-,N/A,,Overcast,320,2013-03-07 18:55:00
2:15 PM,33.3,26.8,77,30.24,10.0,NNW,6.9,-,N/A,,Overcast,330,2013-03-07 19:15:00
2:35 PM,33.6,27.5,78,30.24,10.0,NNW,5.8,-,N/A,,Overcast,330,2013-03-07 19:35:00
2:55 PM,33.6,27.0,77,30.24,10.0,NW,6.9,-,N/A,,Overcast,310,2013-03-07 19:55:00
3:15 PM,33.6,27.3,78,30.24,10.0,NW,5.8,-,N/A,,Overcast,310,2013-03-07 20:15:00
3:35 PM,34.0,27.7,78,30.24,10.0,NW,5.8,-,N/A,,Overcast,310,2013-03-07 20:35:00
4:15 PM,34.7,28.2,77,30.24,10.0,NW,6.9,-,N/A,,Overcast,320,2013-03-07 21:15:00
4:35 PM,34.9,28.0,76,30.25,10.0,NNW,6.9,-,0.03,,Overcast,330,2013-03-07 21:35:00
4:55 PM,34.7,28.0,77,30.25,10.0,NW,8.1,-,0.03,,Overcast,320,2013-03-07 21:55:00
5:15 PM,34.5,28.0,77,30.25,10.0,NW,6.9,-,N/A,,Overcast,320,2013-03-07 22:15:00
5:35 PM,34.3,28.0,78,30.25,10.0,WNW,4.6,-,N/A,,Overcast,300,2013-03-07 22:35:00
5:55 PM,34.2,28.0,78,30.25,10.0,NW,4.6,-,N/A,,Overcast,310,2013-03-07 22:55:00
6:15 PM,34.0,28.2,79,30.25,10.0,NW,4.6,-,N/A,,Overcast,310,2013-03-07 23:15:00
6:35 PM,34.0,27.5,77,30.26,10.0,NW,3.5,-,N/A,,Overcast,310,2013-03-07 23:35:00
6:55 PM,34.0,28.0,79,30.27,10.0,NNW,4.6,-,N/A,,Overcast,330,2013-03-07 23:55:00
8:35 PM,33.8,27.3,77,30.28,10.0,Calm,Calm,-,N/A,,Overcast,0,2013-03-08 01:35:00
8:55 PM,33.8,26.8,75,30.28,10.0,Calm,Calm,-,N/A,,Overcast,0,2013-03-08 01:55:00
9:15 PM,33.8,26.8,75,30.28,10.0,North,3.5,-,N/A,,Overcast,350,2013-03-08 02:15:00
9:35 PM,33.4,27.1,78,30.28,10.0,Calm,Calm,-,N/A,,Overcast,0,2013-03-08 02:35:00
9:55 PM,33.4,27.0,77,30.28,10.0,North,3.5,-,N/A,,Overcast,350,2013-03-08 02:55:00
10:15 PM,33.4,26.6,76,30.28,10.0,Calm,Calm,-,N/A,,Overcast,0,2013-03-08 03:15:00
10:35 PM,33.3,27.1,78,30.28,10.0,Calm,Calm,-,N/A,,Overcast,0,2013-03-08 03:35:00
10:55 PM,33.3,27.5,79,30.29,10.0,NNW,4.6,-,N/A,,Overcast,340,2013-03-08 03:55:00
11:15 PM,33.3,26.6,77,30.29,10.0,Calm,Calm,-,N/A,,Overcast,0,2013-03-08 04:15:00
11:35 PM,33.1,25.9,75,30.28,10.0,Calm,Calm,-,N/A,,Overcast,0,2013-03-08 04:35:00
11:55 PM,32.9,26.1,76,30.28,10.0,Calm,Calm,-,N/A,,Overcast,0,2013-03-08 04:55:00